Time,TemperatureF,DewpointF,PressureIn,WindDirection,WindDirectionDegrees,WindSpeedMPH,WindSpeedGustMPH,Humidity,HourlyPrecipIn,Conditions,Clouds,dailyrainin,SolarRadiationWatts/m^2,SoftwareType,DateUTC
2013-05-19 00:02:00,58.8,47.1,30.23,WSW,244,1.0,5.0,65,0.00,,,0.00,0.0,meteohub,2013-05-19 07:02:00,
2013-05-19 00:07:00,58.6,46.9,30.23,WNW,289,0.0,5.0,65,0.00,,,0.00,0.0,meteohub,2013-05-19 07:07:00,
2013-05-19 00:12:00,58.6,46.6,30.23,SW,218,0.0,6.0,64,0.00,,,0.00,0.0,meteohub,2013-05-19 07:12:00,
2013-05-19 00:17:00,58.6,46.9,30.23,WSW,249,1.0,6.0,65,0.00,,,0.00,0.0,meteohub,2013-05-19 07:17:00,
2013-05-19 00:22:00,58.5,47.1,30.23,SW,235,0.0,5.0,66,0.00,,,0.00,0.0,meteohub,2013-05-19 07:22:00,
2013-05-19 00:27:00,58.3,46.9,30.23,WSW,241,0.0,5.0,66,0.00,,,0.00,0.0,meteohub,2013-05-19 07:27:00,
2013-05-19 00:32:00,58.1,47.1,30.23,WSW,239,2.0,5.0,67,0.00,,,0.00,0.0,meteohub,2013-05-19 07:32:00,
2013-05-19 00:37:00,57.9,46.9,30.23,WSW,244,2.0,5.0,67,0.00,,,0.00,0.0,meteohub,2013-05-19 07:37:00,
2013-05-19 00:42:00,57.7,46.9,30.23,SW,236,1.0,5.0,67,0.00,,,0.00,0.0,meteohub,2013-05-19 07:42:00,
2013-05-19 00:47:00,57.6,46.8,30.23,West,274,0.0,5.0,67,0.00,,,0.00,0.0,meteohub,2013-05-19 07:47:00,
2013-05-19 00:52:00,57.6,46.8,30.23,West,271,1.0,5.0,67,0.00,,,0.00,0.0,meteohub,2013-05-19 07:52:00,
2013-05-19 00:58:00,57.6,47.1,30.23,SW,220,2.0,5.0,68,0.00,,,0.00,0.0,meteohub,2013-05-19 07:58:00,
2013-05-19 01:03:00,57.4,47.3,30.23,SW,217,1.0,5.0,69,0.00,,,0.00,0.0,meteohub,2013-05-19 08:03:00,
2013-05-19 01:08:00,57.0,46.9,30.23,SW,217,0.0,3.0,69,0.00,,,0.00,0.0,meteohub,2013-05-19 08:08:00,
2013-05-19 01:13:00,57.0,47.3,30.23,SSW,203,0.0,3.0,70,0.00,,,0.00,0.0,meteohub,2013-05-19 08:13:00,
2013-05-19 01:18:00,56.7,47.3,30.23,SW,219,4.0,4.0,71,0.00,,,0.00,0.0,meteohub,2013-05-19 08:18:00,
2013-05-19 01:23:00,56.5,48.0,30.24,SW,230,0.0,4.0,73,0.00,,,0.00,0.0,meteohub,2013-05-19 08:23:00,
2013-05-19 01:28:00,56.3,47.8,30.24,SW,215,0.0,5.0,73,0.00,,,0.00,0.0,meteohub,2013-05-19 08:28:00,
2013-05-19 01:33:00,56.1,48.0,30.23,SSW,210,3.0,5.0,74,0.00,,,0.00,0.0,meteohub,2013-05-19 08:33:00,
2013-05-19 01:38:00,55.9,48.2,30.23,SW,223,0.0,6.0,75,0.00,,,0.00,0.0,meteohub,2013-05-19 08:38:00,
2013-05-19 01:43:00,55.6,48.2,30.23,SW,233,2.0,6.0,76,0.00,,,0.00,0.0,meteohub,2013-05-19 08:43:00,
2013-05-19 01:49:00,55.4,48.4,30.23,SW,233,0.0,6.0,77,0.00,,,0.00,0.0,meteohub,2013-05-19 08:49:00,
2013-05-19 01:54:00,55.2,48.2,30.23,SW,234,2.0,4.0,77,0.00,,,0.00,0.0,meteohub,2013-05-19 08:54:00,
2013-05-19 01:59:00,55.0,48.4,30.23,SW,229,3.0,3.0,78,0.00,,,0.00,0.0,meteohub,2013-05-19 08:59:00,
2013-05-19 02:04:00,54.7,48.4,30.23,SW,235,2.0,5.0,79,0.00,,,0.00,0.0,meteohub,2013-05-19 09:04:00,
2013-05-19 02:09:00,54.5,48.4,30.23,SW,230,0.0,5.0,80,0.00,,,0.00,0.0,meteohub,2013-05-19 09:09:00,
2013-05-19 02:14:00,54.3,48.2,30.24,SW,230,1.0,5.0,80,0.00,,,0.00,0.0,meteohub,2013-05-19 09:14:00,
2013-05-19 02:19:00,54.1,48.4,30.24,SW,230,0.0,4.0,81,0.00,,,0.00,0.0,meteohub,2013-05-19 09:19:00,
2013-05-19 02:24:00,54.0,48.2,30.23,SW,230,0.0,4.0,81,0.00,,,0.00,0.0,meteohub,2013-05-19 09:24:00,
2013-05-19 02:29:00,53.8,48.0,30.23,SW,230,0.0,3.0,81,0.00,,,0.00,0.0,meteohub,2013-05-19 09:29:00,
2013-05-19 02:34:00,53.6,47.8,30.23,SW,230,0.0,2.0,81,0.00,,,0.00,0.0,meteohub,2013-05-19 09:34:00,
2013-05-19 02:40:00,53.4,47.7,30.23,SW,230,0.0,1.0,81,0.00,,,0.00,0.0,meteohub,2013-05-19 09:40:00,
2013-05-19 02:45:00,53.2,47.8,30.23,SW,230,0.0,1.0,82,0.00,,,0.00,0.0,meteohub,2013-05-19 09:45:00,
2013-05-19 02:50:00,53.2,47.8,30.23,SW,230,2.0,2.0,82,0.00,,,0.00,0.0,meteohub,2013-05-19 09:50:00,
2013-05-19 02:55:00,53.1,48.0,30.23,SW,230,0.0,3.0,83,0.00,,,0.00,0.0,meteohub,2013-05-19 09:55:00,
2013-05-19 03:00:00,52.9,48.2,30.23,SW,230,0.0,3.0,84,0.00,,,0.00,0.0,meteohub,2013-05-19 10:00:00,
2013-05-19 03:05:00,52.5,47.8,30.23,SW,230,0.0,2.0,84,0.00,,,0.00,0.0,meteohub,2013-05-19 10:05:00,
2013-05-19 03:10:00,52.5,48.2,30.23,SW,224,0.0,3.0,85,0.00,,,0.00,0.0,meteohub,2013-05-19 10:10:00,
2013-05-19 03:15:00,52.3,48.0,30.23,SW,224,0.0,3.0,85,0.00,,,0.00,0.0,meteohub,2013-05-19 10:15:00,
2013-05-19 03:20:00,52.2,47.8,30.23,SW,231,0.0,3.0,85,0.00,,,0.00,0.0,meteohub,2013-05-19 10:20:00,
2013-05-19 03:26:00,52.0,47.7,30.23,SW,231,0.0,2.0,85,0.00,,,0.00,0.0,meteohub,2013-05-19 10:26:00,
2013-05-19 03:31:00,52.0,47.7,30.23,SW,231,0.0,2.0,85,0.00,,,0.00,0.0,meteohub,2013-05-19 10:31:00,
2013-05-19 03:36:00,51.8,47.7,30.23,SW,231,0.0,2.0,86,0.00,,,0.00,0.0,meteohub,2013-05-19 10:36:00,
2013-05-19 03:41:00,51.6,47.5,30.24,SW,231,0.0,1.0,86,0.00,,,0.00,0.0,meteohub,2013-05-19 10:41:00,
2013-05-19 03:46:00,51.6,47.5,30.24,SW,231,0.0,1.0,86,0.00,,,0.00,0.0,meteohub,2013-05-19 10:46:00,
2013-05-19 03:51:00,51.4,47.5,30.24,SW,231,0.0,1.0,86,0.00,,,0.00,0.0,meteohub,2013-05-19 10:51:00,
2013-05-19 03:56:00,51.4,47.5,30.24,SW,231,0.0,1.0,86,0.00,,,0.00,0.0,meteohub,2013-05-19 10:56:00,
2013-05-19 04:01:00,51.4,47.5,30.24,SW,231,0.0,1.0,86,0.00,,,0.00,0.0,meteohub,2013-05-19 11:01:00,
2013-05-19 04:06:00,51.3,47.3,30.24,SW,231,0.0,1.0,86,0.00,,,0.00,0.0,meteohub,2013-05-19 11:06:00,
2013-05-19 04:11:00,51.3,47.3,30.24,SW,231,0.0,0.0,86,0.00,,,0.00,0.0,meteohub,2013-05-19 11:11:00,
2013-05-19 04:16:00,51.1,47.1,30.24,SW,231,0.0,1.0,86,0.00,,,0.00,0.0,meteohub,2013-05-19 11:16:00,
2013-05-19 04:21:00,51.1,47.3,30.24,SW,231,0.0,1.0,87,0.00,,,0.00,0.0,meteohub,2013-05-19 11:21:00,
2013-05-19 04:27:00,50.9,46.9,30.24,SW,231,0.0,1.0,86,0.00,,,0.00,0.0,meteohub,2013-05-19 11:27:00,
2013-05-19 04:32:00,50.7,46.8,30.24,SW,231,0.0,1.0,86,0.00,,,0.00,0.0,meteohub,2013-05-19 11:32:00,
2013-05-19 04:37:00,50.7,46.9,30.24,SW,231,0.0,1.0,87,0.00,,,0.00,0.0,meteohub,2013-05-19 11:37:00,
2013-05-19 04:42:00,50.5,46.8,30.24,SW,231,0.0,1.0,87,0.00,,,0.00,0.0,meteohub,2013-05-19 11:42:00,
2013-05-19 04:47:00,50.5,46.8,30.24,SW,231,0.0,1.0,87,0.00,,,0.00,0.0,meteohub,2013-05-19 11:47:00,
2013-05-19 04:52:00,50.5,46.8,30.24,SW,231,0.0,0.0,87,0.00,,,0.00,0.0,meteohub,2013-05-19 11:52:00,
2013-05-19 04:57:00,50.4,46.6,30.24,SW,231,0.0,0.0,87,0.00,,,0.00,0.0,meteohub,2013-05-19 11:57:00,
2013-05-19 05:02:00,50.4,46.6,30.24,SW,231,0.0,0.0,87,0.00,,,0.00,0.0,meteohub,2013-05-19 12:02:00,
2013-05-19 05:07:00,50.4,46.9,30.24,SW,231,0.0,1.0,88,0.00,,,0.00,0.0,meteohub,2013-05-19 12:07:00,
2013-05-19 05:12:00,50.2,46.8,30.24,SW,231,0.0,1.0,88,0.00,,,0.00,0.0,meteohub,2013-05-19 12:12:00,
2013-05-19 05:17:00,50.2,46.8,30.24,SW,231,0.0,1.0,88,0.00,,,0.00,0.0,meteohub,2013-05-19 12:17:00,
2013-05-19 05:22:00,49.8,46.4,30.24,SW,231,0.0,0.0,88,0.00,,,0.00,0.0,meteohub,2013-05-19 12:22:00,
2013-05-19 05:27:00,49.8,46.0,30.24,SW,231,0.0,0.0,87,0.00,,,0.00,0.0,meteohub,2013-05-19 12:27:00,
2013-05-19 05:32:00,49.6,45.9,30.24,SW,231,0.0,0.0,87,0.00,,,0.00,0.0,meteohub,2013-05-19 12:32:00,
2013-05-19 05:37:00,49.8,46.4,30.24,SW,231,0.0,0.0,88,0.00,,,0.00,0.0,meteohub,2013-05-19 12:37:00,
2013-05-19 05:42:00,49.8,46.4,30.24,SW,231,0.0,0.0,88,0.00,,,0.00,0.0,meteohub,2013-05-19 12:42:00,
2013-05-19 05:47:00,49.8,46.0,30.24,SW,231,0.0,0.0,87,0.00,,,0.00,0.0,meteohub,2013-05-19 12:47:00,
2013-05-19 05:52:00,50.0,46.2,30.24,SW,231,0.0,0.0,87,0.00,,,0.00,0.0,meteohub,2013-05-19 12:52:00,
2013-05-19 05:57:00,50.2,46.4,30.24,SW,231,0.0,1.0,87,0.00,,,0.00,0.0,meteohub,2013-05-19 12:57:00,
2013-05-19 06:02:00,50.2,46.4,30.25,SW,231,0.0,1.0,87,0.00,,,0.00,0.0,meteohub,2013-05-19 13:02:00,
2013-05-19 06:07:00,50.2,46.2,30.25,SW,231,0.0,1.0,86,0.00,,,0.00,5.0,meteohub,2013-05-19 13:07:00,
2013-05-19 06:12:00,50.4,46.4,30.25,SW,231,0.0,1.0,86,0.00,,,0.00,7.0,meteohub,2013-05-19 13:12:00,
2013-05-19 06:17:00,50.4,46.4,30.25,SW,231,0.0,0.0,86,0.00,,,0.00,7.0,meteohub,2013-05-19 13:17:00,
2013-05-19 06:22:00,50.4,46.0,30.25,SW,231,0.0,0.0,85,0.00,,,0.00,9.0,meteohub,2013-05-19 13:22:00,
2013-05-19 06:27:00,50.5,46.2,30.25,SW,231,0.0,0.0,85,0.00,,,0.00,9.0,meteohub,2013-05-19 13:27:00,
2013-05-19 06:32:00,50.7,46.4,30.25,SW,231,0.0,0.0,85,0.00,,,0.00,11.0,meteohub,2013-05-19 13:32:00,
2013-05-19 06:37:00,50.7,46.0,30.25,SW,231,0.0,0.0,84,0.00,,,0.00,12.0,meteohub,2013-05-19 13:37:00,
2013-05-19 06:42:00,51.1,46.4,30.25,SW,231,0.0,1.0,84,0.00,,,0.00,12.0,meteohub,2013-05-19 13:42:00,
2013-05-19 06:47:00,51.3,46.2,30.25,SW,231,0.0,1.0,83,0.00,,,0.00,14.0,meteohub,2013-05-19 13:47:00,
2013-05-19 06:52:00,51.4,46.4,30.25,SW,231,0.0,1.0,83,0.00,,,0.00,14.0,meteohub,2013-05-19 13:52:00,
2013-05-19 06:57:00,51.6,46.2,30.25,SW,231,0.0,1.0,82,0.00,,,0.00,14.0,meteohub,2013-05-19 13:57:00,
2013-05-19 07:02:00,52.2,46.8,30.25,SW,231,0.0,1.0,82,0.00,,,0.00,16.0,meteohub,2013-05-19 14:02:00,
2013-05-19 07:07:00,52.5,46.9,30.25,SW,230,0.0,1.0,81,0.00,,,0.00,16.0,meteohub,2013-05-19 14:07:00,
2013-05-19 07:12:00,52.9,46.9,30.25,SW,230,0.0,2.0,80,0.00,,,0.00,18.0,meteohub,2013-05-19 14:12:00,
2013-05-19 07:17:00,53.2,47.3,30.25,SW,230,0.0,2.0,80,0.00,,,0.00,18.0,meteohub,2013-05-19 14:17:00,
2013-05-19 07:22:00,53.4,47.1,30.25,SW,230,0.0,2.0,79,0.00,,,0.00,18.0,meteohub,2013-05-19 14:22:00,
2013-05-19 07:27:00,53.8,47.5,30.25,SW,227,0.0,2.0,79,0.00,,,0.00,19.0,meteohub,2013-05-19 14:27:00,
2013-05-19 07:32:00,54.0,47.3,30.25,SW,226,0.0,2.0,78,0.00,,,0.00,21.0,meteohub,2013-05-19 14:32:00,
2013-05-19 07:37:00,54.3,47.7,30.25,SW,226,0.0,2.0,78,0.00,,,0.00,19.0,meteohub,2013-05-19 14:37:00,
2013-05-19 07:42:00,54.7,47.7,30.25,SW,226,0.0,2.0,77,0.00,,,0.00,19.0,meteohub,2013-05-19 14:42:00,
2013-05-19 07:47:00,54.9,47.5,30.25,SW,226,0.0,2.0,76,0.00,,,0.00,21.0,meteohub,2013-05-19 14:47:00,
2013-05-19 07:52:00,55.2,47.8,30.25,SW,226,0.0,1.0,76,0.00,,,0.00,21.0,meteohub,2013-05-19 14:52:00,
2013-05-19 07:57:00,55.6,48.2,30.25,SW,226,1.0,2.0,76,0.00,,,0.00,21.0,meteohub,2013-05-19 14:57:00,
2013-05-19 08:02:00,55.8,48.0,30.25,SW,226,0.0,2.0,75,0.00,,,0.00,21.0,meteohub,2013-05-19 15:02:00,
2013-05-19 08:07:00,55.9,48.2,30.25,SW,226,0.0,1.0,75,0.00,,,0.00,23.0,meteohub,2013-05-19 15:07:00,
2013-05-19 08:12:00,56.1,48.4,30.25,SW,226,0.0,1.0,75,0.00,,,0.00,25.0,meteohub,2013-05-19 15:12:00,
2013-05-19 08:17:00,56.7,48.4,30.25,SW,226,1.0,1.0,74,0.00,,,0.00,23.0,meteohub,2013-05-19 15:17:00,
2013-05-19 08:22:00,57.0,48.4,30.25,SW,226,0.0,3.0,73,0.00,,,0.00,25.0,meteohub,2013-05-19 15:22:00,
2013-05-19 08:27:00,57.4,48.4,30.25,SW,226,0.0,3.0,72,0.00,,,0.00,25.0,meteohub,2013-05-19 15:27:00,
2013-05-19 08:32:00,57.7,48.4,30.25,SW,226,0.0,3.0,71,0.00,,,0.00,25.0,meteohub,2013-05-19 15:32:00,
2013-05-19 08:37:00,57.9,48.2,30.26,SW,226,0.0,2.0,70,0.00,,,0.00,25.0,meteohub,2013-05-19 15:37:00,
2013-05-19 08:42:00,58.3,48.2,30.25,SW,226,0.0,1.0,69,0.00,,,0.00,26.0,meteohub,2013-05-19 15:42:00,
2013-05-19 08:47:00,58.5,48.0,30.25,SW,226,0.0,1.0,68,0.00,,,0.00,26.0,meteohub,2013-05-19 15:47:00,
2013-05-19 08:52:00,58.8,47.8,30.25,SW,226,0.0,1.0,67,0.00,,,0.00,26.0,meteohub,2013-05-19 15:52:00,
2013-05-19 08:57:00,59.2,47.8,30.25,SW,226,0.0,1.0,66,0.00,,,0.00,28.0,meteohub,2013-05-19 15:57:00,
2013-05-19 09:02:00,59.5,47.8,30.25,SW,226,0.0,2.0,65,0.00,,,0.00,30.0,meteohub,2013-05-19 16:02:00,
2013-05-19 09:07:00,60.1,47.8,30.25,SW,226,0.0,3.0,64,0.00,,,0.00,28.0,meteohub,2013-05-19 16:07:00,
2013-05-19 09:12:00,60.4,46.9,30.25,SW,226,0.0,3.0,61,0.00,,,0.00,30.0,meteohub,2013-05-19 16:12:00,
2013-05-19 09:17:00,60.6,46.2,30.25,SW,232,0.0,3.0,59,0.00,,,0.00,30.0,meteohub,2013-05-19 16:17:00,
2013-05-19 09:22:00,61.2,47.1,30.25,SW,232,0.0,2.0,60,0.00,,,0.00,32.0,meteohub,2013-05-19 16:22:00,
2013-05-19 09:27:00,61.5,47.5,30.25,SW,232,0.0,2.0,60,0.00,,,0.00,32.0,meteohub,2013-05-19 16:27:00,
2013-05-19 09:32:00,62.2,46.8,30.25,SW,232,0.0,2.0,57,0.00,,,0.00,33.0,meteohub,2013-05-19 16:32:00,
2013-05-19 09:37:00,62.4,47.5,30.25,SW,232,0.0,1.0,58,0.00,,,0.00,33.0,meteohub,2013-05-19 16:37:00,
2013-05-19 09:42:00,63.0,48.0,30.25,SW,232,0.0,2.0,58,0.00,,,0.00,35.0,meteohub,2013-05-19 16:42:00,
2013-05-19 09:47:00,63.3,47.8,30.25,SW,232,0.0,2.0,57,0.00,,,0.00,37.0,meteohub,2013-05-19 16:47:00,
2013-05-19 09:52:00,63.7,46.8,30.25,West,260,0.0,2.0,54,0.00,,,0.00,70.0,meteohub,2013-05-19 16:52:00,
2013-05-19 09:57:00,64.2,46.8,30.25,NE,42,2.0,2.0,53,0.00,,,0.00,42.0,meteohub,2013-05-19 16:57:00,
2013-05-19 10:02:00,65.3,45.7,30.25,NE,47,1.0,3.0,49,0.00,,,0.00,42.0,meteohub,2013-05-19 17:02:00,
2013-05-19 10:07:00,66.0,44.6,30.25,ENE,59,1.0,3.0,46,0.00,,,0.00,46.0,meteohub,2013-05-19 17:07:00,
2013-05-19 10:12:00,66.9,45.0,30.25,ENE,60,2.0,3.0,45,0.00,,,0.00,44.0,meteohub,2013-05-19 17:12:00,
2013-05-19 10:17:00,67.5,44.8,30.25,North,355,0.0,3.0,44,0.00,,,0.00,46.0,meteohub,2013-05-19 17:17:00,
2013-05-19 10:22:00,67.5,45.3,30.24,ENE,66,1.0,3.0,45,0.00,,,0.00,172.0,meteohub,2013-05-19 17:22:00,
2013-05-19 10:27:00,67.8,45.1,30.25,SE,128,2.0,4.0,44,0.00,,,0.00,339.0,meteohub,2013-05-19 17:27:00,
2013-05-19 10:32:00,68.2,44.2,30.24,East,86,2.0,4.0,42,0.00,,,0.00,294.0,meteohub,2013-05-19 17:32:00,
2013-05-19 10:37:00,68.5,45.1,30.24,East,100,3.0,4.0,43,0.00,,,0.00,758.0,meteohub,2013-05-19 17:37:00,
2013-05-19 10:42:00,69.1,44.4,30.24,ENE,73,0.0,5.0,41,0.00,,,0.00,770.0,meteohub,2013-05-19 17:42:00,
2013-05-19 10:47:00,69.4,44.8,30.24,ENE,72,0.0,5.0,41,0.00,,,0.00,780.0,meteohub,2013-05-19 17:47:00,
2013-05-19 10:52:00,70.0,43.9,30.23,ENE,72,0.0,5.0,39,0.00,,,0.00,789.0,meteohub,2013-05-19 17:52:00,
2013-05-19 10:57:00,70.5,45.0,30.23,East,93,1.0,3.0,40,0.00,,,0.00,802.0,meteohub,2013-05-19 17:57:00,
2013-05-19 11:02:00,71.1,44.8,30.23,SSW,202,2.0,3.0,39,0.00,,,0.00,812.0,meteohub,2013-05-19 18:02:00,
2013-05-19 11:07:00,71.8,45.5,30.23,ENE,59,0.0,3.0,39,0.00,,,0.00,677.0,meteohub,2013-05-19 18:07:00,
2013-05-19 11:12:00,72.1,45.1,30.23,East,84,0.0,3.0,38,0.00,,,0.00,209.0,meteohub,2013-05-19 18:12:00,
2013-05-19 11:17:00,72.7,45.7,30.23,East,84,1.0,3.0,38,0.00,,,0.00,60.0,meteohub,2013-05-19 18:17:00,
2013-05-19 11:22:00,73.9,46.0,30.23,West,281,3.0,4.0,37,0.00,,,0.00,60.0,meteohub,2013-05-19 18:22:00,
2013-05-19 11:27:00,74.5,45.0,30.24,NE,40,0.0,4.0,35,0.00,,,0.00,60.0,meteohub,2013-05-19 18:27:00,
2013-05-19 11:32:00,74.3,45.0,30.23,ENE,66,2.0,4.0,35,0.00,,,0.00,62.0,meteohub,2013-05-19 18:32:00,
2013-05-19 11:37:00,74.1,43.9,30.23,ENE,58,3.0,5.0,34,0.00,,,0.00,62.0,meteohub,2013-05-19 18:37:00,
2013-05-19 11:42:00,73.9,44.6,30.23,East,83,2.0,7.0,35,0.00,,,0.00,63.0,meteohub,2013-05-19 18:42:00,
2013-05-19 11:47:00,74.1,43.9,30.23,ENE,66,3.0,7.0,34,0.00,,,0.00,63.0,meteohub,2013-05-19 18:47:00,
2013-05-19 11:52:00,74.3,44.1,30.23,SE,142,0.0,7.0,34,0.00,,,0.00,65.0,meteohub,2013-05-19 18:52:00,
2013-05-19 11:57:00,75.0,44.8,30.22,ENE,71,0.0,4.0,34,0.00,,,0.00,65.0,meteohub,2013-05-19 18:57:00,
2013-05-19 12:02:00,75.4,44.2,30.22,ENE,65,1.0,6.0,33,0.00,,,0.00,67.0,meteohub,2013-05-19 19:02:00,
2013-05-19 12:07:00,75.6,44.4,30.22,East,86,1.0,6.0,33,0.00,,,0.00,67.0,meteohub,2013-05-19 19:07:00,
2013-05-19 12:12:00,75.6,43.7,30.22,ENE,73,3.0,6.0,32,0.00,,,0.00,70.0,meteohub,2013-05-19 19:12:00,
2013-05-19 12:17:00,75.9,44.8,30.22,East,79,2.0,5.0,33,0.00,,,0.00,323.0,meteohub,2013-05-19 19:17:00,
2013-05-19 12:22:00,76.3,43.3,30.22,NNW,331,0.0,4.0,31,0.00,,,0.00,898.0,meteohub,2013-05-19 19:22:00,
2013-05-19 12:27:00,76.6,43.7,30.22,NE,54,1.0,4.0,31,0.00,,,0.00,939.0,meteohub,2013-05-19 19:27:00,
2013-05-19 12:32:00,76.5,43.5,30.22,ENE,67,0.0,7.0,31,0.00,,,0.00,942.0,meteohub,2013-05-19 19:32:00,
2013-05-19 12:37:00,76.6,42.8,30.21,WSW,252,0.0,7.0,30,0.00,,,0.00,947.0,meteohub,2013-05-19 19:37:00,
2013-05-19 12:42:00,78.3,45.1,30.21,WSW,257,0.0,7.0,31,0.00,,,0.00,947.0,meteohub,2013-05-19 19:42:00,
2013-05-19 12:47:00,79.2,43.2,30.21,NNE,26,1.0,4.0,28,0.00,,,0.00,954.0,meteohub,2013-05-19 19:47:00,
2013-05-19 12:52:00,79.0,44.1,30.20,ENE,78,0.0,3.0,29,0.00,,,0.00,969.0,meteohub,2013-05-19 19:52:00,
2013-05-19 12:57:00,78.6,43.7,30.20,North,0,1.0,4.0,29,0.00,,,0.00,958.0,meteohub,2013-05-19 19:57:00,
2013-05-19 13:02:00,79.0,45.0,30.19,SW,232,0.0,4.0,30,0.00,,,0.00,960.0,meteohub,2013-05-19 20:02:00,
2013-05-19 13:07:00,79.3,45.1,30.20,SSW,211,3.0,5.0,30,0.00,,,0.00,962.0,meteohub,2013-05-19 20:07:00,
2013-05-19 13:12:00,80.2,43.2,30.19,SW,233,1.0,5.0,27,0.00,,,0.00,965.0,meteohub,2013-05-19 20:12:00,
2013-05-19 13:17:00,80.1,43.0,30.19,NE,53,1.0,6.0,27,0.00,,,0.00,963.0,meteohub,2013-05-19 20:17:00,
2013-05-19 13:22:00,79.9,43.0,30.19,NE,49,1.0,6.0,27,0.00,,,0.00,962.0,meteohub,2013-05-19 20:22:00,
2013-05-19 13:27:00,80.1,43.0,30.19,East,92,0.0,6.0,27,0.00,,,0.00,969.0,meteohub,2013-05-19 20:27:00,
2013-05-19 13:32:00,80.4,42.4,30.18,NNW,342,0.0,3.0,26,0.00,,,0.00,956.0,meteohub,2013-05-19 20:32:00,
2013-05-19 13:37:00,81.0,42.8,30.18,WNW,295,1.0,3.0,26,0.00,,,0.00,960.0,meteohub,2013-05-19 20:37:00,
2013-05-19 13:42:00,81.0,42.8,30.18,SE,138,0.0,5.0,26,0.00,,,0.00,954.0,meteohub,2013-05-19 20:42:00,
2013-05-19 13:47:00,81.0,42.8,30.18,East,82,5.0,5.0,26,0.00,,,0.00,962.0,meteohub,2013-05-19 20:47:00,
2013-05-19 13:52:00,81.3,41.0,30.17,SW,225,1.0,5.0,24,0.00,,,0.00,958.0,meteohub,2013-05-19 20:52:00,
2013-05-19 13:57:00,81.5,41.2,30.17,ENE,69,8.0,8.0,24,0.00,,,0.00,974.0,meteohub,2013-05-19 20:57:00,
2013-05-19 14:02:00,81.0,41.9,30.17,NW,313,1.0,9.0,25,0.00,,,0.00,951.0,meteohub,2013-05-19 21:02:00,
2013-05-19 14:07:00,81.0,41.9,30.17,ENE,70,3.0,9.0,25,0.00,,,0.00,947.0,meteohub,2013-05-19 21:07:00,
2013-05-19 14:12:00,81.0,40.8,30.17,ENE,69,3.0,9.0,24,0.00,,,0.00,946.0,meteohub,2013-05-19 21:12:00,
2013-05-19 14:17:00,81.3,41.0,30.17,WNW,296,2.0,5.0,24,0.00,,,0.00,937.0,meteohub,2013-05-19 21:17:00,
2013-05-19 14:22:00,82.8,41.2,30.17,NE,55,2.0,5.0,23,0.00,,,0.00,933.0,meteohub,2013-05-19 21:22:00,
2013-05-19 14:27:00,82.9,41.4,30.17,ENE,67,2.0,5.0,23,0.00,,,0.00,926.0,meteohub,2013-05-19 21:27:00,
2013-05-19 14:32:00,82.8,40.1,30.16,East,79,3.0,6.0,22,0.00,,,0.00,921.0,meteohub,2013-05-19 21:32:00,
2013-05-19 14:37:00,82.6,38.7,30.16,ENE,62,2.0,6.0,21,0.00,,,0.00,916.0,meteohub,2013-05-19 21:37:00,
2013-05-19 14:43:00,82.9,40.1,30.16,WNW,300,4.0,5.0,22,0.00,,,0.00,911.0,meteohub,2013-05-19 21:43:00,
2013-05-19 14:48:00,83.1,39.2,30.16,East,90,2.0,5.0,21,0.00,,,0.00,900.0,meteohub,2013-05-19 21:48:00,
2013-05-19 14:53:00,82.9,39.0,30.15,ENE,63,1.0,5.0,21,0.00,,,0.00,896.0,meteohub,2013-05-19 21:53:00,
2013-05-19 14:58:00,83.7,40.8,30.15,WNW,289,4.0,5.0,22,0.00,,,0.00,888.0,meteohub,2013-05-19 21:58:00,
2013-05-19 15:03:00,84.0,39.9,30.15,West,269,4.0,6.0,21,0.00,,,0.00,877.0,meteohub,2013-05-19 22:03:00,
2013-05-19 15:08:00,84.9,40.6,30.14,NNW,332,1.0,6.0,21,0.00,,,0.00,868.0,meteohub,2013-05-19 22:08:00,
2013-05-19 15:13:00,85.6,42.4,30.15,SW,234,2.0,9.0,22,0.00,,,0.00,858.0,meteohub,2013-05-19 22:13:00,
2013-05-19 15:18:00,85.8,41.4,30.14,East,81,1.0,9.0,21,0.00,,,0.00,851.0,meteohub,2013-05-19 22:18:00,
2013-05-19 15:23:00,85.6,41.2,30.14,NNE,24,0.0,9.0,21,0.00,,,0.00,840.0,meteohub,2013-05-19 22:23:00,
2013-05-19 15:29:00,85.8,41.4,30.14,SE,129,0.0,5.0,21,0.00,,,0.00,830.0,meteohub,2013-05-19 22:29:00,
2013-05-19 15:34:00,86.2,37.8,30.14,SW,216,0.0,5.0,18,0.00,,,0.00,819.0,meteohub,2013-05-19 22:34:00,
2013-05-19 15:39:00,86.5,41.9,30.14,ESE,115,1.0,8.0,21,0.00,,,0.00,810.0,meteohub,2013-05-19 22:39:00,
2013-05-19 15:44:00,86.4,43.0,30.14,WSW,244,1.0,8.0,22,0.00,,,0.00,800.0,meteohub,2013-05-19 22:44:00,
2013-05-19 15:49:00,85.6,42.4,30.14,West,262,5.0,8.0,22,0.00,,,0.00,789.0,meteohub,2013-05-19 22:49:00,
2013-05-19 15:54:00,84.4,43.7,30.14,West,264,4.0,11.0,24,0.00,,,0.00,775.0,meteohub,2013-05-19 22:54:00,
2013-05-19 15:59:00,83.8,44.2,30.13,SW,232,12.0,12.0,25,0.00,,,0.00,765.0,meteohub,2013-05-19 22:59:00,
2013-05-19 16:04:00,82.9,43.5,30.13,West,279,2.0,14.0,25,0.00,,,0.00,751.0,meteohub,2013-05-19 23:04:00,
2013-05-19 16:09:00,82.8,43.3,30.13,SW,222,6.0,14.0,25,0.00,,,0.00,740.0,meteohub,2013-05-19 23:09:00,
2013-05-19 16:15:00,82.6,43.2,30.13,SW,220,3.0,15.0,25,0.00,,,0.00,726.0,meteohub,2013-05-19 23:15:00,
2013-05-19 16:20:00,82.2,43.0,30.13,SW,215,9.0,15.0,25,0.00,,,0.00,710.0,meteohub,2013-05-19 23:20:00,
2013-05-19 16:25:00,81.7,43.5,30.13,WNW,294,5.0,15.0,26,0.00,,,0.00,703.0,meteohub,2013-05-19 23:25:00,
2013-05-19 16:30:00,81.1,44.1,30.13,SW,234,8.0,15.0,27,0.00,,,0.00,691.0,meteohub,2013-05-19 23:30:00,
2013-05-19 16:35:00,81.0,42.8,30.13,SW,219,9.0,15.0,26,0.00,,,0.00,675.0,meteohub,2013-05-19 23:35:00,
2013-05-19 16:40:00,80.4,42.4,30.13,WSW,246,6.0,15.0,26,0.00,,,0.00,663.0,meteohub,2013-05-19 23:40:00,
2013-05-19 16:45:00,80.4,43.3,30.13,WSW,248,3.0,15.0,27,0.00,,,0.00,647.0,meteohub,2013-05-19 23:45:00,
2013-05-19 16:50:00,80.8,43.7,30.12,SW,214,5.0,14.0,27,0.00,,,0.00,635.0,meteohub,2013-05-19 23:50:00,
2013-05-19 16:55:00,81.1,44.1,30.12,WSW,254,9.0,11.0,27,0.00,,,0.00,619.0,meteohub,2013-05-19 23:55:00,
2013-05-19 17:00:00,81.7,45.3,30.12,WSW,239,2.0,11.0,28,0.00,,,0.00,603.0,meteohub,2013-05-20 00:00:00,
2013-05-19 17:06:00,82.0,43.7,30.12,WSW,257,7.0,10.0,26,0.00,,,0.00,591.0,meteohub,2013-05-20 00:06:00,
2013-05-19 17:11:00,82.0,44.8,30.12,SW,233,6.0,11.0,27,0.00,,,0.00,575.0,meteohub,2013-05-20 00:11:00,
2013-05-19 17:16:00,81.7,44.4,30.12,SSW,212,5.0,11.0,27,0.00,,,0.00,561.0,meteohub,2013-05-20 00:16:00,
2013-05-19 17:21:00,81.3,44.1,30.12,SSW,201,5.0,10.0,27,0.00,,,0.00,543.0,meteohub,2013-05-20 00:21:00,
2013-05-19 17:26:00,81.3,44.1,30.12,NNW,334,6.0,10.0,27,0.00,,,0.00,527.0,meteohub,2013-05-20 00:26:00,
2013-05-19 17:31:00,81.9,44.6,30.12,West,267,4.0,8.0,27,0.00,,,0.00,512.0,meteohub,2013-05-20 00:31:00,
2013-05-19 17:36:00,81.3,44.1,30.12,SW,233,7.0,9.0,27,0.00,,,0.00,494.0,meteohub,2013-05-20 00:36:00,
2013-05-19 17:41:00,80.8,44.6,30.12,NW,315,4.0,10.0,28,0.00,,,0.00,478.0,meteohub,2013-05-20 00:41:00,
2013-05-19 17:46:00,81.1,44.1,30.12,SW,232,5.0,10.0,27,0.00,,,0.00,462.0,meteohub,2013-05-20 00:46:00,
2013-05-19 17:52:00,80.4,43.3,30.12,WSW,254,5.0,10.0,27,0.00,,,0.00,443.0,meteohub,2013-05-20 00:52:00,
2013-05-19 17:57:00,80.2,43.2,30.12,SSW,211,5.0,10.0,27,0.00,,,0.00,420.0,meteohub,2013-05-20 00:57:00,
2013-05-19 18:02:00,80.4,43.3,30.12,WSW,249,5.0,10.0,27,0.00,,,0.00,408.0,meteohub,2013-05-20 01:02:00,
2013-05-19 18:07:00,80.6,42.6,30.11,SW,236,5.0,9.0,26,0.00,,,0.00,390.0,meteohub,2013-05-20 01:07:00,
2013-05-19 18:12:00,80.1,42.1,30.11,WSW,254,5.0,9.0,26,0.00,,,0.00,376.0,meteohub,2013-05-20 01:12:00,
2013-05-19 18:17:00,79.7,42.8,30.11,SW,236,8.0,9.0,27,0.00,,,0.00,362.0,meteohub,2013-05-20 01:17:00,
2013-05-19 18:22:00,80.1,43.0,30.11,SW,229,2.0,9.0,27,0.00,,,0.00,345.0,meteohub,2013-05-20 01:22:00,
2013-05-19 18:27:00,80.1,42.1,30.11,SW,228,6.0,9.0,26,0.00,,,0.00,325.0,meteohub,2013-05-20 01:27:00,
2013-05-19 18:32:00,79.7,43.7,30.11,WSW,257,5.0,9.0,28,0.00,,,0.00,306.0,meteohub,2013-05-20 01:32:00,
2013-05-19 18:37:00,80.1,44.1,30.11,SW,234,3.0,9.0,28,0.00,,,0.00,290.0,meteohub,2013-05-20 01:37:00,
2013-05-19 18:42:00,80.1,43.0,30.11,WSW,251,4.0,7.0,27,0.00,,,0.00,274.0,meteohub,2013-05-20 01:42:00,
2013-05-19 18:47:00,79.9,43.0,30.11,SW,236,2.0,7.0,27,0.00,,,0.00,248.0,meteohub,2013-05-20 01:47:00,
2013-05-19 18:52:00,79.5,42.6,30.11,SW,230,2.0,7.0,27,0.00,,,0.00,239.0,meteohub,2013-05-20 01:52:00,
2013-05-19 18:57:00,79.3,43.3,30.11,SW,223,1.0,6.0,28,0.00,,,0.00,216.0,meteohub,2013-05-20 01:57:00,
2013-05-19 19:03:00,79.3,44.2,30.10,WSW,246,2.0,8.0,29,0.00,,,0.00,195.0,meteohub,2013-05-20 02:03:00,
2013-05-19 19:08:00,79.3,44.2,30.10,SW,229,5.0,8.0,29,0.00,,,0.00,172.0,meteohub,2013-05-20 02:08:00,
2013-05-19 19:13:00,78.8,43.9,30.10,South,176,6.0,8.0,29,0.00,,,0.00,151.0,meteohub,2013-05-20 02:13:00,
2013-05-19 19:18:00,78.3,44.2,30.11,WNW,284,1.0,8.0,30,0.00,,,0.00,137.0,meteohub,2013-05-20 02:18:00,
2013-05-19 19:23:00,77.7,43.9,30.11,SW,227,8.0,9.0,30,0.00,,,0.00,118.0,meteohub,2013-05-20 02:23:00,
2013-05-19 19:28:00,77.4,43.5,30.11,WNW,296,4.0,9.0,30,0.00,,,0.00,98.0,meteohub,2013-05-20 02:28:00,
2013-05-19 19:33:00,76.8,43.0,30.11,West,262,2.0,11.0,30,0.00,,,0.00,32.0,meteohub,2013-05-20 02:33:00,
2013-05-19 19:38:00,76.5,43.5,30.11,WSW,244,0.0,11.0,31,0.00,,,0.00,26.0,meteohub,2013-05-20 02:38:00,
2013-05-19 19:43:00,76.1,43.3,30.11,SW,230,3.0,7.0,31,0.00,,,0.00,21.0,meteohub,2013-05-20 02:43:00,
2013-05-19 19:49:00,75.6,43.7,30.11,SW,234,4.0,6.0,32,0.00,,,0.00,16.0,meteohub,2013-05-20 02:49:00,
2013-05-19 19:54:00,75.0,43.2,30.11,SW,233,2.0,6.0,32,0.00,,,0.00,12.0,meteohub,2013-05-20 02:54:00,
2013-05-19 19:59:00,74.5,42.6,30.11,WSW,242,1.0,6.0,32,0.00,,,0.00,11.0,meteohub,2013-05-20 02:59:00,
2013-05-19 20:04:00,74.1,43.2,30.11,WSW,242,0.0,6.0,33,0.00,,,0.00,9.0,meteohub,2013-05-20 03:04:00,
2013-05-19 20:09:00,73.8,42.8,30.11,WSW,242,1.0,5.0,33,0.00,,,0.00,5.0,meteohub,2013-05-20 03:09:00,
2013-05-19 20:14:00,73.4,43.3,30.11,WSW,242,0.0,5.0,34,0.00,,,0.00,0.0,meteohub,2013-05-20 03:14:00,
2013-05-19 20:20:00,72.9,42.8,30.11,SW,235,0.0,2.0,34,0.00,,,0.00,0.0,meteohub,2013-05-20 03:20:00,
2013-05-19 20:25:00,72.5,43.3,30.11,SW,235,3.0,3.0,35,0.00,,,0.00,0.0,meteohub,2013-05-20 03:25:00,
2013-05-19 20:30:00,72.0,43.5,30.12,SW,235,1.0,2.0,36,0.00,,,0.00,0.0,meteohub,2013-05-20 03:30:00,
2013-05-19 20:35:00,71.4,43.7,30.11,SW,235,0.0,3.0,37,0.00,,,0.00,0.0,meteohub,2013-05-20 03:35:00,
2013-05-19 20:40:00,71.1,43.5,30.11,SW,234,0.0,3.0,37,0.00,,,0.00,0.0,meteohub,2013-05-20 03:40:00,
2013-05-19 20:45:00,70.3,43.5,30.12,SW,234,0.0,2.0,38,0.00,,,0.00,0.0,meteohub,2013-05-20 03:45:00,
2013-05-19 20:50:00,70.0,43.2,30.12,SW,234,0.0,2.0,38,0.00,,,0.00,0.0,meteohub,2013-05-20 03:50:00,
2013-05-19 20:55:00,69.3,43.2,30.12,SW,234,0.0,1.0,39,0.00,,,0.00,0.0,meteohub,2013-05-20 03:55:00,
2013-05-19 21:00:00,68.7,42.8,30.12,SW,234,0.0,1.0,39,0.00,,,0.00,0.0,meteohub,2013-05-20 04:00:00,
2013-05-19 21:01:00,68.5,43.3,30.12,SW,234,0.0,1.0,40,0.00,,,0.00,0.0,meteohub,2013-05-20 04:01:00,
2013-05-19 21:02:00,68.5,43.3,30.12,SW,234,0.0,1.0,40,0.00,,,0.00,0.0,meteohub,2013-05-20 04:02:00,
2013-05-19 21:03:00,68.4,43.2,30.12,SW,234,0.0,1.0,40,0.00,,,0.00,0.0,meteohub,2013-05-20 04:03:00,
2013-05-19 21:08:00,67.8,43.3,30.12,SW,234,0.0,1.0,41,0.00,,,0.00,0.0,meteohub,2013-05-20 04:08:00,
2013-05-19 21:13:00,67.3,43.3,30.12,SW,234,0.0,1.0,42,0.00,,,0.00,0.0,meteohub,2013-05-20 04:13:00,
2013-05-19 21:18:00,66.7,43.5,30.12,SW,234,0.0,1.0,43,0.00,,,0.00,0.0,meteohub,2013-05-20 04:18:00,
2013-05-19 21:23:00,66.6,43.3,30.12,SW,234,0.0,1.0,43,0.00,,,0.00,0.0,meteohub,2013-05-20 04:23:00,
2013-05-19 21:28:00,66.2,43.0,30.12,SW,234,0.0,1.0,43,0.00,,,0.00,0.0,meteohub,2013-05-20 04:28:00,
2013-05-19 21:33:00,66.0,43.5,30.12,SW,234,0.0,0.0,44,0.00,,,0.00,0.0,meteohub,2013-05-20 04:33:00,
2013-05-19 21:38:00,65.7,43.2,30.13,SW,234,0.0,0.0,44,0.00,,,0.00,0.0,meteohub,2013-05-20 04:38:00,
2013-05-19 21:43:00,65.5,43.5,30.13,SW,234,0.0,0.0,45,0.00,,,0.00,0.0,meteohub,2013-05-20 04:43:00,
2013-05-19 21:49:00,64.9,43.7,30.13,SW,234,0.0,0.0,46,0.00,,,0.00,0.0,meteohub,2013-05-20 04:49:00,
2013-05-19 21:54:00,64.4,43.7,30.13,SW,234,0.0,0.0,47,0.00,,,0.00,0.0,meteohub,2013-05-20 04:54:00,
2013-05-19 21:59:00,64.0,43.3,30.13,SW,234,0.0,0.0,47,0.00,,,0.00,0.0,meteohub,2013-05-20 04:59:00,
2013-05-19 22:04:00,63.7,43.7,30.13,SW,234,0.0,0.0,48,0.00,,,0.00,0.0,meteohub,2013-05-20 05:04:00,
2013-05-19 22:09:00,63.5,43.5,30.13,SW,234,0.0,0.0,48,0.00,,,0.00,0.0,meteohub,2013-05-20 05:09:00,
2013-05-19 22:14:00,63.1,43.2,30.13,SW,234,0.0,0.0,48,0.00,,,0.00,0.0,meteohub,2013-05-20 05:14:00,
2013-05-19 22:19:00,63.1,43.7,30.14,SW,234,0.0,0.0,49,0.00,,,0.00,0.0,meteohub,2013-05-20 05:19:00,
2013-05-19 22:24:00,62.8,43.3,30.13,SW,234,0.0,0.0,49,0.00,,,0.00,0.0,meteohub,2013-05-20 05:24:00,
2013-05-19 22:29:00,62.4,43.0,30.13,SW,234,0.0,0.0,49,0.00,,,0.00,0.0,meteohub,2013-05-20 05:29:00,
2013-05-19 22:34:00,62.2,42.8,30.13,SW,234,0.0,0.0,49,0.00,,,0.00,0.0,meteohub,2013-05-20 05:34:00,
2013-05-19 22:39:00,62.1,42.6,30.13,SW,234,0.0,0.0,49,0.00,,,0.00,0.0,meteohub,2013-05-20 05:39:00,
2013-05-19 22:45:00,61.9,41.9,30.13,SW,234,0.0,0.0,48,0.00,,,0.00,0.0,meteohub,2013-05-20 05:45:00,
2013-05-19 22:50:00,61.7,42.3,30.13,SW,234,0.0,0.0,49,0.00,,,0.00,0.0,meteohub,2013-05-20 05:50:00,
2013-05-19 22:55:00,61.7,42.3,30.13,SW,234,0.0,0.0,49,0.00,,,0.00,0.0,meteohub,2013-05-20 05:55:00,
2013-05-19 23:00:00,61.5,42.3,30.13,SW,234,0.0,0.0,49,0.00,,,0.00,0.0,meteohub,2013-05-20 06:00:00,
2013-05-19 23:05:00,61.5,42.3,30.13,SW,234,0.0,0.0,49,0.00,,,0.00,0.0,meteohub,2013-05-20 06:05:00,
2013-05-19 23:10:00,61.5,41.7,30.13,SW,234,0.0,0.0,48,0.00,,,0.00,0.0,meteohub,2013-05-20 06:10:00,
2013-05-19 23:15:00,61.5,42.3,30.13,SW,234,0.0,0.0,49,0.00,,,0.00,0.0,meteohub,2013-05-20 06:15:00,
2013-05-19 23:20:00,61.3,42.1,30.13,SW,234,0.0,0.0,49,0.00,,,0.00,0.0,meteohub,2013-05-20 06:20:00,
2013-05-19 23:25:00,61.2,41.9,30.12,SW,234,0.0,0.0,49,0.00,,,0.00,0.0,meteohub,2013-05-20 06:25:00,
2013-05-19 23:30:00,60.8,42.1,30.12,SW,234,0.0,0.0,50,0.00,,,0.00,0.0,meteohub,2013-05-20 06:30:00,
2013-05-19 23:35:00,60.6,41.9,30.12,SW,234,0.0,0.0,50,0.00,,,0.00,0.0,meteohub,2013-05-20 06:35:00,
2013-05-19 23:41:00,60.4,41.7,30.12,SW,234,0.0,0.0,50,0.00,,,0.00,0.0,meteohub,2013-05-20 06:41:00,
2013-05-19 23:46:00,60.3,42.1,30.12,SW,234,0.0,0.0,51,0.00,,,0.00,0.0,meteohub,2013-05-20 06:46:00,
2013-05-19 23:51:00,60.1,41.9,30.12,SW,234,0.0,0.0,51,0.00,,,0.00,0.0,meteohub,2013-05-20 06:51:00,
2013-05-19 23:56:00,60.1,41.9,30.12,SW,234,0.0,0.0,51,0.00,,,0.00,0.0,meteohub,2013-05-20 06:56:00,